Cullman, AL

8:57 PM CDT on October 22, 2017 (GMT -0500)
Cullman

Weather History for K3A1 - February, 2012

Change the Weather History Date:

Thursday, February 2, 2012

  Actual Average (KHSV) Record (KHSV)
Temperature  
Mean Temperature 58 °F -  
Max Temperature 68 °F 52 °F 77 °F (2016)
Min Temperature 48 °F 34 °F 3 °F (1951)
Degree Days  
Heating Degree Days 7    
Growing Degree Days 8 (Base 50)    
Moisture  
Dew Point 40 °F    
Average Humidity 64    
Maximum Humidity 91    
Minimum Humidity 12    
Precipitation  
Precipitation 0.00 in - - ()
Sea Level Pressure  
Sea Level Pressure 30.23 in    
Wind  
Wind Speed 1 mph (NNE)    
Max Wind Speed 12 mph    
Max Gust Speed -    
Visibility 6 miles    
Events Fog    
Averages and records for this station are not official NWS values.
T = Trace of Precipitation, MM = Missing Value Source: NWS Daily Summary

Daily Weather History Graph

Daily Weather History Graph

Search for Another Location

Airport or City:

Trip Planner

Search our weather history database for the weather conditions in past years. The results will help you decide how hot, cold, wet, or windy it might be!

Date:

Astronomy

Feb. 02, 2012 Rise Set
Actual Time 6:44 AM CST 5:18 PM CST
Civil Twilight 6:18 AM CST 5:44 PM CST
Nautical Twilight 5:48 AM CST 6:14 PM CST
Astronomical Twilight 5:18 AM CST 6:43 PM CST
Moon 12:34 PM CST (2/2) 2:21 AM CST (2/2)
Length of Visible Light 11h 26m
Length of Day
10h 33m
Waxing Gibbous, 74% of the Moon is Illuminated
Feb 2
Waxing Gibbous
Feb 7
Full
Feb 14
Last Quarter
Feb 21
New
Feb 29
First Quarter

Hourly Weather History & Observations

Time (CST) Temp. Dew Point Humidity Pressure Visibility Wind Dir Wind Speed Gust Speed Precip Events Conditions
12:15 AM 54.5 °F 51.6 °F 90% 30.12 in 7.0 mi Calm Calm - N/A   Overcast
12:35 AM 53.2 °F 50.5 °F 91% 30.13 in 1.0 mi Calm Calm - N/A   Overcast
12:55 AM 53.1 °F 50.4 °F 91% 30.14 in 0.2 mi Calm Calm - N/A Fog Fog
1:15 AM 53.1 °F 50.4 °F 91% 30.15 in 0.5 mi Calm Calm - N/A Fog Fog
1:35 AM 53.1 °F 50.4 °F 91% 30.15 in 1.8 mi Calm Calm - N/A   Overcast
1:55 AM 53.1 °F 50.5 °F 91% 30.15 in 3.0 mi Calm Calm - N/A   Overcast
2:15 AM 53.1 °F 50.5 °F 91% 30.16 in 0.8 mi Calm Calm - N/A   Overcast
2:35 AM 53.1 °F 50.5 °F 91% 30.16 in 1.0 mi Calm Calm - N/A   Overcast
2:55 AM 53.1 °F 50.5 °F 91% 30.17 in 2.0 mi Calm Calm - N/A   Overcast
3:15 AM 53.1 °F 50.5 °F 91% 30.17 in 0.5 mi Calm Calm - N/A Fog Fog
3:35 AM 53.1 °F 50.5 °F 91% 30.17 in 0.2 mi Calm Calm - N/A Fog Fog
3:55 AM 53.1 °F 50.5 °F 91% 30.17 in 0.5 mi Calm Calm - N/A Fog Fog
4:15 AM 53.1 °F 50.5 °F 91% 30.18 in 0.2 mi Calm Calm - N/A Fog Fog
4:35 AM 53.1 °F 50.5 °F 91% 30.18 in 0.2 mi Calm Calm - N/A Fog Fog
4:55 AM 53.1 °F 50.5 °F 91% 30.19 in 0.5 mi Calm Calm - N/A Fog Fog
5:15 AM 53.1 °F 50.5 °F 91% 30.19 in 0.5 mi Calm Calm - N/A Fog Fog
5:35 AM 53.1 °F 50.5 °F 91% 30.19 in 0.5 mi Calm Calm - N/A Fog Fog
5:55 AM 53.1 °F 50.5 °F 91% 30.20 in 0.5 mi Calm Calm - N/A Fog Fog
6:15 AM 53.1 °F 50.5 °F 91% 30.22 in 0.5 mi Calm Calm - N/A Fog Fog
6:35 AM 53.1 °F 50.5 °F 91% 30.22 in 0.5 mi Calm Calm - N/A Fog Fog
6:55 AM 53.1 °F 50.5 °F 91% 30.23 in 0.2 mi Calm Calm - N/A Fog Fog
7:15 AM 53.1 °F 50.5 °F 91% 30.23 in 0.2 mi Calm Calm - N/A Fog Fog
7:35 AM 53.1 °F 50.5 °F 91% 30.24 in 0.2 mi Calm Calm - N/A Fog Fog
7:55 AM 53.1 °F 50.5 °F 91% 30.25 in 0.2 mi Calm Calm - N/A Fog Fog
8:15 AM 53.1 °F 50.5 °F 91% 30.25 in 0.2 mi Calm Calm - N/A Fog Fog
8:35 AM 53.1 °F 50.5 °F 91% 30.26 in 0.2 mi Calm Calm - N/A Fog Fog
8:55 AM 53.1 °F 50.5 °F 91% 30.26 in 2.0 mi North 6.9 mph - N/A   Overcast
9:15 AM 53.1 °F 50.5 °F 91% 30.27 in 4.0 mi NE 10.4 mph - N/A   Overcast
9:35 AM 53.1 °F 50.5 °F 91% 30.27 in 5.0 mi North 5.8 mph - N/A   Overcast
9:55 AM 53.6 °F 50.9 °F 91% 30.28 in 7.0 mi NE 6.9 mph - N/A   Scattered Clouds
10:15 AM 55.4 °F 52.7 °F 91% 30.28 in 10.0 mi NE 8.1 mph - N/A   Clear
10:35 AM 57.4 °F 53.1 °F 85% 30.28 in 10.0 mi NE 5.8 mph - N/A   Scattered Clouds
10:55 AM 59.5 °F 49.1 °F 68% 30.28 in 10.0 mi Calm Calm - N/A   Clear
11:15 AM 60.4 °F 46.2 °F 59% 30.27 in 10.0 mi NNE 4.6 mph - N/A   Clear
11:35 AM 61.0 °F 38.3 °F 43% 30.27 in 10.0 mi NE 9.2 mph - N/A   Clear
11:55 AM 61.7 °F 32.5 °F 33% 30.26 in 10.0 mi NE 9.2 mph - N/A   Clear
12:15 PM 62.6 °F 30.7 °F 30% 30.25 in 10.0 mi NNW 5.8 mph - N/A   Clear
12:35 PM 64.0 °F 28.4 °F 26% 30.24 in 10.0 mi North 6.9 mph - N/A   Clear
12:55 PM 64.6 °F 25.5 °F 23% 30.23 in 10.0 mi North 9.2 mph - N/A   Clear
1:15 PM 65.5 °F 24.4 °F 21% 30.23 in 10.0 mi NE 11.5 mph - N/A   Clear
1:35 PM 65.5 °F 20.3 °F 18% 30.23 in 10.0 mi North 6.9 mph - N/A   Clear
1:55 PM 65.8 °F 16.7 °F 15% 30.23 in 10.0 mi Calm Calm - N/A   Clear
2:15 PM 67.5 °F 16.7 °F 14% 30.23 in 10.0 mi Calm Calm - N/A   Clear
2:35 PM 68.0 °F 16.5 °F 14% 30.23 in 10.0 mi NNE 10.4 mph - N/A   Clear
2:55 PM 68.0 °F 14.9 °F 13% 30.23 in 10.0 mi Calm Calm - N/A   Clear
3:15 PM 68.0 °F 13.6 °F 12% 30.22 in 10.0 mi Calm Calm - N/A   Clear
3:35 PM 67.6 °F 14.9 °F 13% 30.23 in 10.0 mi North 3.5 mph - N/A   Clear
3:55 PM 65.8 °F 15.4 °F 14% 30.24 in 10.0 mi Calm Calm - N/A   Clear
4:15 PM 64.4 °F 15.1 °F 15% 30.24 in 10.0 mi Calm Calm - N/A   Clear
4:35 PM 61.5 °F 17.1 °F 18% 30.24 in 10.0 mi NNE 4.6 mph - N/A   Clear
4:55 PM 59.9 °F 20.8 °F 22% 30.24 in 10.0 mi Calm Calm - N/A   Clear
5:15 PM 57.7 °F 24.1 °F 27% 30.24 in 10.0 mi Calm Calm - N/A   Clear
5:35 PM 54.7 °F 27.5 °F 35% 30.25 in 10.0 mi Calm Calm - N/A   Clear
5:55 PM 53.1 °F 28.6 °F 39% 30.26 in 10.0 mi Calm Calm - N/A   Clear
6:15 PM 52.0 °F 30.6 °F 44% 30.26 in 10.0 mi Calm Calm - N/A   Clear
6:35 PM 52.9 °F 30.6 °F 43% 30.26 in 10.0 mi Calm Calm - N/A   Clear
6:55 PM 50.9 °F 30.0 °F 45% 30.27 in 10.0 mi Calm Calm - N/A   Clear
7:15 PM 48.4 °F 32.0 °F 53% 30.28 in 10.0 mi Calm Calm - N/A   Clear
7:35 PM 48.2 °F 30.9 °F 51% 30.28 in 10.0 mi Calm Calm - N/A   Clear
7:55 PM 48.2 °F 29.8 °F 49% 30.28 in 10.0 mi Calm Calm - N/A   Clear
8:15 PM 48.2 °F 30.6 °F 51% 30.29 in 10.0 mi Calm Calm - N/A   Clear
8:35 PM 48.2 °F 29.3 °F 48% 30.29 in 10.0 mi Calm Calm - N/A   Clear
8:55 PM 48.2 °F 30.0 °F 49% 30.30 in 10.0 mi Calm Calm - N/A   Clear
9:15 PM 47.7 °F 33.3 °F 57% 30.30 in 10.0 mi Calm Calm - N/A   Clear
9:35 PM 46.8 °F 33.8 °F 61% 30.30 in 10.0 mi Calm Calm - N/A   Clear
9:55 PM 45.5 °F 33.8 °F 64% 30.30 in 10.0 mi Calm Calm - N/A   Clear
10:15 PM 44.4 °F 33.8 °F 66% 30.30 in 10.0 mi Calm Calm - N/A   Clear
10:35 PM 43.0 °F 33.4 °F 69% 30.30 in 10.0 mi Calm Calm - N/A   Clear
10:55 PM 42.1 °F 34.2 °F 74% 30.29 in 10.0 mi Calm Calm - N/A   Clear
11:15 PM 41.9 °F 34.5 °F 75% 30.29 in 10.0 mi Calm Calm - N/A   Clear
11:35 PM 40.8 °F 34.2 °F 77% 30.29 in 10.0 mi Calm Calm - N/A   Clear
11:55 PM 43.0 °F 34.9 °F 73% 30.29 in 10.0 mi Calm Calm - N/A   Clear